Temperature
25 24 23 24 27 30 32 34 34 34 34 34 34 34 32 30 29 28 27 25 24 24 24 22 21 21 20 20 20 20 20 20 20 20 20 20 20 20 20 20 20 19 19 19 19 20 20 20 20
25 24 25 27 29 29 32 34 34 34 34 34 34 33 32 30 29 28 26 24 24 25 24 23 22 21 21 20 20 20 20 20 20 20 20 20 20 20 20 20 20 20 20 20 20 20 20 20 20
26 25 27 30 29 29 32 34 34 35 34 34 33 32 31 29 28 27 26 24 23 24 24 24 23 22 21 21 20 20 20 20 20 20 20 20 20 20 20 20 20 20 20 20 20 20 20 20 20
25 28 30 31 30 31 33 34 35 35 34 34 33 31 29 28 28 26 25 24 23 23 24 23 23 22 21 21 21 20 20 20 20 20 20 20 20 20 20 20 20 20 20 20 20 20 20 20 20
27 30 32 32 32 33 34 35 35 34 35 34 32 30 28 28 27 26 25 24 23 22 23 23 23 22 22 21 21 21 20 20 20 20 20 20 20 20 20 20 20 20 20 19 19 20 20 20 20
29 33 33 32 31 32 34 35 34 34 34 34 32 30 28 27 26 26 25 24 24 22 23 23 23 22 22 21 21 21 20 20 20 20 20 20 20 20 19 19 19 19 19 19 19 19 19 19 19
31 32 33 33 31 30 33 34 34 33 34 34 33 31 28 27 26 26 26 25 24 23 23 23 23 22 22 22 21 21 21 20 20 20 20 20 20 20 19 19 19 19 19 19 19 19 19 19 19
31 33 33 34 32 30 33 35 34 34 33 33 33 32 29 27 26 26 26 26 25 23 23 23 23 23 22 22 21 21 21 21 20 20 20 20 20 20 19 19 19 19 19 19 19 19 19 19 19
31 32 32 34 34 33 34 35 35 34 32 32 33 32 29 27 27 26 26 26 26 24 22 23 22 23 22 22 22 21 21 21 20 20 20 20 20 19 19 19 19 19 19 19 19 19 19 19 19
33 32 33 35 35 35 35 35 35 34 33 31 29 28 28 27 27 26 26 26 25 25 23 22 21 21 21 20 20 21 21 21 20 20 20 20 19 19 18 19 19 19 19 19 19 19 19 19 19
33 33 34 35 35 35 35 35 35 35 32 27 25 24 26 27 27 26 26 26 25 24 24 23 22 21 21 21 20 20 20 20 20 20 19 19 19 19 19 19 19 19 19 19 19 19 19 19 19
34 34 34 34 34 34 34 35 35 35 32 28 27 25 25 26 27 26 26 26 24 24 24 24 23 21 21 21 21 20 20 20 20 20 19 19 19 19 19 19 19 19 18 18 18 18 18 18 19
33 33 34 34 34 34 34 34 35 34 31 29 27 26 26 26 27 27 26 25 24 23 23 23 22 21 21 21 21 21 20 21 20 20 19 19 19 19 18 19 19 19 19 19 18 19 19 19 19
33 33 33 34 34 34 34 34 34 34 32 29 27 26 26 26 27 27 26 25 24 23 23 23 22 21 21 21 21 20 20 20 20 20 20 19 19 19 19 18 18 19 19 19 19 19 19 19 19
32 32 32 33 34 34 34 34 34 34 34 32 29 28 28 28 28 28 27 25 24 23 23 22 22 21 21 20 20 20 20 20 20 19 19 19 19 18 18 18 18 18 18 18 18 18 18 18 18
32 31 31 33 34 35 34 32 34 34 34 33 32 31 30 29 29 28 27 25 25 24 23 22 22 21 21 20 20 19 20 20 20 20 19 19 19 18 18 18 18 18 18 17 17 18 18 18 18
31 31 31 33 35 35 34 32 34 34 33 33 32 32 31 29 28 28 27 25 25 24 23 22 22 21 21 20 20 20 20 20 20 20 20 19 19 18 18 18 17 17 17 17 17 17 17 17 17
31 32 32 33 34 33 32 32 34 33 33 32 32 31 30 29 27 27 26 25 25 24 23 22 21 21 20 20 20 20 20 20 20 20 20 19 19 18 18 18 17 17 17 16 16 16 16 16 16
31 31 32 33 34 32 31 32 32 33 32 31 30 30 28 27 26 26 24 23 23 23 22 21 21 20 20 20 20 20 20 20 20 20 20 19 19 18 18 18 17 17 16 16 16 16 16 16 16
31 31 31 32 33 32 31 31 32 32 31 30 29 27 25 24 22 21 20 20 20 19 20 20 20 20 20 20 20 20 21 21 20 20 20 19 19 18 18 17 17 17 16 16 16 16 15 16 16
30 30 30 30 31 31 31 30 31 31 30 28 25 22 20 19 19 18 18 18 18 18 18 19 19 19 19 19 20 20 20 20 20 20 20 19 18 18 18 18 18 17 17 16 16 16 15 15 15
29 30 30 30 29 29 30 29 30 30 28 25 23 21 19 18 17 17 17 17 17 18 18 19 19 19 19 19 19 19 19 20 20 20 20 19 19 18 18 18 17 17 17 16 16 15 15 15 15
30 31 30 30 29 29 29 28 29 29 26 24 22 20 19 17 16 16 16 16 17 17 18 18 18 18 18 18 19 19 19 19 19 19 19 19 18 18 17 17 17 17 17 16 15 16 16 15 15
31 30 30 29 28 25 24 24 26 27 25 23 22 20 19 18 17 16 16 15 15 16 16 16 17 17 17 18 18 18 18 18 18 18 18 18 18 18 17 17 17 17 17 16 16 15 15 15 15
30 28 27 26 24 22 21 22 24 25 25 23 22 20 19 18 17 16 16 15 15 15 15 15 16 16 16 16 16 16 16 16 17 17 17 17 17 17 17 17 17 17 16 16 16 15 15 15 15
29 29 27 26 26 26 24 24 23 23 23 22 21 20 20 19 18 17 16 15 15 15 14 15 15 15 15 16 15 15 15 15 15 16 16 16 16 17 17 16 16 16 16 15 15 15 15 15 15
29 29 29 28 27 27 27 24 22 22 21 21 21 20 19 19 18 18 17 16 15 15 14 14 14 15 15 15 15 15 15 15 15 15 15 15 15 15 16 15 15 15 15 15 15 15 15 15 14
30 29 28 27 25 25 27 24 22 20 20 20 20 20 19 18 18 17 17 16 15 15 14 14 13 13 13 13 14 13 14 14 14 14 14 14 15 15 15 15 15 15 14 14 14 14 14 14 14
29 29 28 27 26 25 24 23 22 20 19 20 20 19 18 18 17 16 16 16 15 15 14 14 13 12 12 12 12 12 12 12 12 13 13 13 13 14 14 14 14 14 14 14 14 14 14 14 14
29 28 28 26 25 25 25 21 21 20 20 19 19 18 18 17 16 16 15 15 14 14 13 13 12 12 11 11 11 11 11 11 11 11 11 12 12 12 13 13 13 14 14 14 14 14 14 14 14
Wind_Speed
9 11 10 6 6 6 3 12 13 12 12 10 9 10 18 16 12 13 16 23 26 22 21 21 19 17 17 17 17 17 16 15 14 12 11 10 10 10 10 9 9 9 8 8 8 8 8 8 7
10 13 8 5 5 4 5 11 11 10 7 7 8 11 16 15 15 16 19 23 24 22 21 20 20 18 18 17 17 16 15 14 13 12 11 10 9 9 9 8 8 8 7 7 7 7 6 6 6
11 14 6 5 2 3 5 10 9 10 8 9 11 14 13 11 14 14 19 24 23 20 20 22 21 19 18 17 16 16 15 14 13 12 11 10 9 8 8 7 6 6 6 5 5 5 5 5 4
8 7 6 6 3 5 2 7 6 9 9 8 12 12 10 9 11 17 21 23 22 20 20 22 21 19 18 17 16 15 14 14 13 12 11 10 9 8 7 7 6 6 5 5 5 5 5 5 5
10 7 10 6 3 4 2 5 7 8 7 13 17 14 11 10 17 21 20 22 20 20 19 22 21 19 17 16 15 14 13 12 12 11 10 9 8 8 8 7 7 7 6 6 6 6 6 7 7
6 9 12 4 2 8 2 4 7 6 6 11 17 15 10 13 16 19 19 19 20 21 19 20 20 19 17 16 14 14 13 12 11 10 10 9 9 8 8 8 9 9 8 8 8 9 9 9 10
11 13 17 9 4 7 8 3 8 6 4 6 13 14 12 15 16 18 17 17 20 21 20 17 18 17 17 16 15 14 13 13 12 11 11 10 10 10 11 11 11 11 11 11 11 11 11 12 12
12 12 19 11 6 8 11 5 5 6 4 1 8 11 14 18 18 18 16 16 18 21 19 17 17 17 16 15 16 15 14 13 13 12 12 12 12 13 14 15 15 15 14 14 13 14 14 14 15
15 13 17 13 3 5 4 4 3 6 11 7 3 9 21 23 20 18 16 15 15 18 19 18 18 16 16 16 17 16 15 14 13 13 14 13 13 14 16 20 19 19 18 17 16 16 16 16 17
11 13 17 11 5 2 2 6 4 4 6 3 14 15 17 20 19 19 17 16 14 14 18 16 18 16 14 14 16 14 14 15 15 14 15 14 13 12 13 13 21 22 22 20 19 18 17 17 15
15 18 19 14 8 7 8 9 8 8 4 10 14 7 2 13 16 17 16 15 13 11 12 15 14 14 12 7 11 9 10 12 15 15 13 13 10 9 11 6 12 17 18 15 16 17 15 15 14
17 16 16 13 13 11 12 13 11 8 5 18 23 19 17 16 18 18 17 16 14 12 11 12 14 12 7 5 6 6 5 5 7 11 14 9 4 4 4 3 2 4 8 7 8 6 11 12 12
14 14 17 17 14 13 14 14 15 11 6 19 24 24 21 21 19 18 17 16 15 13 13 9 11 11 8 3 2 4 3 2 2 2 4 3 3 2 3 3 3 5 5 3 3 4 5 5 6
15 17 16 15 15 16 15 15 16 16 9 17 22 22 22 22 20 18 17 16 16 15 14 12 12 11 9 6 4 2 2 1 1 2 3 2 1 1 2 4 4 4 5 5 4 6 6 6 6
15 16 18 19 20 19 16 16 17 18 14 12 16 20 22 21 19 17 18 17 18 16 14 12 12 13 11 9 8 6 5 4 2 2 3 4 3 3 3 4 5 4 5 5 5 6 6 7 8
16 17 20 22 22 18 13 15 16 14 10 6 8 11 14 14 16 16 17 14 16 16 14 13 14 15 12 8 6 5 5 4 4 4 5 5 4 4 2 4 4 2 4 4 5 6 6 6 6
18 20 21 22 21 14 10 13 13 7 4 6 7 9 11 13 13 12 14 13 12 12 13 12 10 13 12 10 7 6 4 3 3 4 3 5 2 1 1 2 3 3 4 4 6 4 3 5 6
13 13 15 16 7 5 9 13 12 7 6 8 8 7 8 10 9 7 7 9 9 10 11 11 9 10 10 8 6 5 5 5 5 3 4 5 1 2 3 3 5 4 4 5 5 6 6 6 7
14 14 14 10 2 2 8 13 14 10 7 7 6 4 0 3 4 1 2 3 1 5 9 9 8 7 5 5 5 5 4 3 3 3 5 5 2 2 2 4 4 5 5 5 6 6 8 7 7
11 11 12 11 9 8 10 13 14 12 9 4 4 7 8 10 14 17 17 13 14 12 7 6 8 6 4 3 2 2 2 1 1 2 4 4 3 1 3 2 3 5 5 6 7 6 5 6 7
10 11 11 11 11 12 15 18 15 12 3 8 15 19 20 18 15 13 12 13 15 15 14 8 5 3 2 3 2 2 2 1 2 3 4 5 3 2 1 2 4 5 5 6 6 6 7 6 6
9 8 11 12 13 14 16 14 7 2 9 13 15 17 17 17 14 12 12 11 9 10 9 10 8 4 3 1 2 3 3 3 2 1 2 5 5 4 4 4 4 4 5 6 7 6 5 6 7
10 11 12 15 16 17 17 14 2 9 10 13 14 16 17 17 16 15 15 12 11 11 10 10 10 10 9 7 6 5 5 5 4 3 1 3 4 6 6 6 5 4 5 6 6 6 6 6 7
10 13 15 15 11 11 13 13 4 4 10 11 12 14 15 16 16 16 15 14 12 12 11 11 11 11 11 11 9 8 8 8 8 8 7 4 4 5 7 7 5 4 5 6 6 6 7 7 7
10 12 11 10 4 4 7 9 0 7 11 13 13 13 13 14 14 14 14 13 12 13 13 12 12 12 12 13 12 10 9 8 7 7 7 7 5 4 4 4 3 4 5 6 6 7 7 8 8
10 11 10 14 15 8 10 6 7 10 12 13 12 11 11 12 11 11 11 11 11 11 11 10 10 9 9 9 9 9 9 8 7 8 8 7 6 5 3 1 3 5 6 7 6 6 8 7 7
7 9 15 15 15 15 5 7 7 9 8 8 9 9 10 10 10 10 9 9 8 8 7 7 6 6 7 7 6 6 7 7 8 9 8 7 7 8 7 5 5 6 7 7 7 6 8 8 7
6 9 8 8 11 13 14 3 3 8 5 4 5 7 8 9 10 11 10 9 8 7 5 4 4 4 5 6 6 7 6 6 7 7 8 8 8 8 9 9 8 8 8 8 8 7 8 7 7
8 9 8 8 9 12 15 5 7 7 4 3 5 5 7 9 11 11 12 12 11 10 8 6 6 6 6 6 6 7 7 8 8 7 7 7 8 8 9 9 9 9 9 9 8 8 9 8 7
10 8 7 7 9 11 13 3 6 4 4 3 5 7 8 10 12 13 14 13 12 12 11 10 9 8 8 7 7 7 7 8 9 9 8 8 9 9 9 9 9 10 11 9 9 9 9 7 7
Wind_Direction
244 242 235 258 263 257 59 70 62 61 65 63 43 45 60 57 67 94 117 115 118 127 135 138 138 138 137 137 138 138 137 135 133 131 129 126 122 118 115 111 109 108 107 106 105 103 102 102 104
270 262 249 248 274 306 67 75 72 65 66 86 75 71 78 74 90 110 114 118 124 131 140 143 143 143 142 141 141 141 140 139 137 136 136 134 132 130 126 122 120 118 116 115 114 113 112 113 116
267 262 263 238 287 302 80 85 88 91 77 81 80 63 69 93 108 116 122 126 128 135 141 142 149 148 147 146 146 146 146 145 145 145 145 145 144 143 140 139 138 137 136 136 135 134 134 136 140
272 254 234 246 224 252 105 100 98 92 96 98 98 87 81 84 118 125 132 129 129 137 140 147 152 152 152 152 152 152 152 152 152 153 155 157 159 160 160 162 165 167 169 172 174 174 173 176 182
266 260 256 266 296 264 118 100 90 83 82 89 91 97 97 102 117 130 136 131 138 141 140 150 155 155 156 156 157 157 157 158 159 162 166 170 174 179 182 185 190 195 199 203 206 207 207 207 211
277 271 279 283 295 297 257 119 95 87 108 115 114 109 108 124 130 142 141 143 146 139 141 149 156 158 160 161 163 164 164 166 169 175 180 187 194 200 205 207 209 213 216 219 221 223 223 223 224
274 293 292 278 166 292 284 168 133 154 147 119 117 116 133 146 146 149 148 153 147 140 140 151 159 163 166 169 171 172 174 177 182 188 195 202 209 215 220 223 223 223 223 225 227 230 233 233 234
279 291 290 278 182 206 250 239 137 141 83 120 147 135 150 148 155 151 154 158 149 141 146 157 162 165 170 175 179 180 183 186 192 199 206 213 221 227 229 229 225 226 225 225 228 232 236 238 240
269 272 276 290 289 212 243 270 166 151 156 206 25 116 143 149 156 153 162 164 156 148 151 164 163 167 176 180 180 183 189 196 200 208 215 220 230 233 228 228 225 223 223 224 226 232 236 240 243
252 264 275 310 338 282 232 276 260 208 193 101 46 67 129 152 158 164 170 167 161 155 159 168 165 166 182 186 166 183 192 195 203 212 208 211 228 249 259 229 218 219 221 222 227 231 236 239 244
255 263 282 304 308 310 298 274 255 239 169 109 90 34 255 168 167 173 175 171 161 165 174 166 160 160 183 177 160 186 196 185 196 216 212 204 219 243 262 250 212 216 222 225 231 229 231 233 234
255 267 284 290 297 305 295 294 295 286 144 135 136 164 219 208 185 180 177 172 162 175 190 173 155 157 183 184 178 177 192 177 193 200 208 203 196 235 267 294 291 221 223 223 241 234 227 233 245
267 268 272 275 275 275 277 281 287 284 142 137 148 169 197 211 195 184 176 171 165 179 188 179 150 148 160 187 248 196 200 173 146 118 166 168 170 220 288 318 317 306 297 277 254 280 290 287 288
274 282 280 280 278 271 267 269 270 268 212 153 155 175 199 208 201 184 174 171 170 181 182 172 156 152 159 167 186 277 288 102 124 102 93 83 127 164 276 279 274 273 278 292 298 291 289 284 277
261 270 273 267 260 253 253 260 263 265 247 182 175 186 194 202 199 185 178 174 174 180 175 162 167 161 167 174 183 192 211 198 177 161 184 200 205 193 229 256 258 254 263 267 267 268 265 266 265
265 258 258 255 248 242 242 265 273 275 261 233 212 209 196 191 195 185 180 178 177 178 168 165 175 164 163 164 176 188 209 180 178 190 199 183 182 195 214 256 269 295 285 264 260 251 255 261 266
248 245 251 254 243 229 237 265 276 283 296 281 260 235 206 187 198 191 181 181 180 168 159 164 163 153 158 165 177 201 194 165 193 204 163 131 153 230 238 281 293 286 276 280 290 296 293 290 287
296 277 253 252 220 197 259 277 289 310 293 280 272 241 203 191 196 196 191 193 181 153 149 156 154 143 155 167 179 194 177 179 196 174 126 119 109 11 33 321 329 341 319 305 305 315 306 287 276
312 311 312 316 21 238 268 286 292 294 295 297 312 325 221 210 216 155 47 4 34 133 142 149 145 140 160 173 177 183 174 187 175 159 125 112 97 15 19 302 323 310 292 308 316 310 304 299 287
291 298 301 307 317 303 286 278 280 281 269 284 340 15 26 39 30 27 25 21 24 15 50 97 118 144 184 164 164 147 114 168 167 107 116 147 170 160 279 333 329 310 317 302 281 279 282 288 294
307 318 319 318 313 294 280 271 263 260 269 65 51 50 48 51 55 45 35 25 28 25 26 20 66 118 231 149 195 213 141 219 242 191 176 160 142 155 234 291 285 297 295 290 313 308 291 292 295
305 320 315 302 291 282 280 281 268 185 84 67 58 56 59 57 57 61 59 55 42 43 37 22 19 31 7 354 319 311 282 262 259 219 178 146 160 192 203 226 247 265 281 293 293 303 321 301 292
304 305 292 284 280 279 280 276 233 113 95 70 61 59 59 62 56 54 57 56 48 46 47 38 30 21 6 2 356 334 306 302 305 316 218 161 198 198 203 208 217 244 263 272 279 291 283 282 283
305 300 289 279 283 289 317 313 237 136 117 102 79 67 62 62 62 59 57 56 53 50 48 46 41 35 23 16 6 353 333 322 317 317 311 285 249 217 206 198 196 223 251 271 280 276 274 270 273
321 307 301 301 291 239 235 260 185 87 88 89 80 70 65 62 61 58 54 51 50 48 47 44 40 34 30 28 16 7 350 336 321 311 298 286 275 258 221 202 182 229 258 267 267 269 269 272 273
313 303 301 309 311 302 213 217 107 84 81 82 78 66 56 52 52 53 52 49 44 43 40 38 36 30 25 28 16 13 8 355 346 344 327 312 304 302 319 258 227 237 249 263 268 276 274 272 273
304 320 324 316 308 309 304 104 101 90 81 73 67 54 41 31 26 27 29 31 30 28 32 29 25 16 8 5 356 358 3 353 347 337 330 328 328 316 319 306 270 253 251 254 261 265 270 275 275
276 306 316 320 320 317 321 68 158 140 121 81 50 33 20 7 3 3 358 356 356 348 350 357 351 343 334 331 331 332 340 330 327 326 332 332 330 324 316 305 293 279 265 256 254 260 265 272 274
311 309 320 318 318 317 315 5 65 89 74 46 38 20 359 347 342 339 335 333 329 326 329 336 337 332 325 322 320 319 317 317 316 309 311 317 318 318 314 304 291 281 274 265 257 258 264 269 277
321 320 321 316 314 308 308 42 65 76 71 31 344 334 332 326 321 319 318 317 315 316 320 321 322 316 309 305 301 299 300 302 301 301 306 309 307 305 305 305 298 284 275 268 265 263 267 272 277
Height
1488 1487 1488 1491 1488 1480 1470 1460 1456 1458 1459 1462 1463 1461 1467 1474 1479 1492 1495 1496 1497 1501 1504 1508 1511 1514 1517 1520 1522 1525 1526 1528 1530 1532 1533 1534 1536 1537 1539 1540 1541 1542 1543 1544 1545 1546 1547 1548 1548
1488 1489 1493 1491 1488 1491 1475 1459 1461 1462 1462 1462 1463 1465 1471 1479 1484 1490 1494 1497 1498 1501 1505 1508 1511 1514 1517 1520 1523 1525 1527 1529 1531 1533 1534 1536 1537 1539 1540 1541 1542 1543 1544 1545 1546 1547 1548 1548 1549
1488 1490 1492 1483 1486 1488 1473 1460 1460 1460 1462 1463 1467 1471 1477 1484 1488 1492 1496 1498 1500 1502 1505 1508 1511 1514 1517 1520 1523 1526 1528 1530 1532 1534 1535 1537 1538 1539 1541 1542 1543 1544 1545 1546 1547 1547 1548 1549 1550
1490 1491 1487 1480 1483 1474 1463 1458 1458 1459 1462 1463 1467 1476 1483 1487 1489 1493 1496 1499 1501 1503 1506 1509 1512 1514 1517 1520 1523 1526 1528 1530 1532 1534 1536 1537 1539 1540 1541 1542 1543 1544 1545 1546 1546 1547 1548 1548 1549
1492 1488 1478 1477 1476 1466 1459 1457 1459 1462 1462 1464 1470 1479 1486 1489 1490 1493 1497 1500 1502 1504 1506 1509 1512 1515 1517 1520 1523 1526 1528 1530 1532 1534 1536 1537 1538 1540 1541 1541 1542 1543 1544 1544 1545 1546 1547 1547 1548
1491 1480 1478 1479 1480 1469 1461 1458 1460 1464 1464 1465 1470 1479 1488 1491 1492 1495 1498 1500 1503 1504 1506 1509 1512 1514 1517 1520 1523 1525 1528 1530 1532 1534 1535 1536 1538 1539 1540 1541 1541 1542 1542 1543 1543 1544 1545 1545 1546
1491 1482 1477 1472 1477 1479 1465 1459 1460 1465 1464 1465 1469 1478 1487 1491 1493 1495 1498 1501 1504 1505 1506 1509 1511 1514 1517 1519 1522 1524 1527 1529 1531 1532 1534 1535 1536 1537 1538 1539 1540 1540 1541 1541 1542 1542 1543 1543 1544
1488 1483 1475 1466 1471 1477 1464 1457 1458 1462 1467 1468 1468 1474 1483 1489 1493 1496 1499 1502 1504 1505 1505 1508 1511 1513 1516 1518 1521 1523 1525 1527 1529 1531 1532 1534 1535 1536 1537 1538 1538 1539 1540 1540 1540 1541 1541 1541 1541
1487 1485 1479 1464 1465 1466 1460 1457 1459 1461 1466 1469 1469 1470 1478 1486 1491 1495 1498 1501 1504 1505 1505 1507 1509 1512 1514 1517 1519 1522 1524 1526 1528 1529 1531 1532 1533 1533 1534 1535 1536 1537 1538 1538 1539 1539 1539 1539 1539
1482 1482 1470 1459 1459 1460 1461 1459 1458 1461 1465 1469 1474 1480 1483 1487 1490 1493 1495 1498 1501 1504 1505 1507 1508 1509 1513 1516 1517 1520 1522 1523 1526 1527 1528 1529 1530 1532 1533 1534 1534 1534 1535 1535 1536 1536 1536 1536 1536
1476 1474 1466 1461 1460 1460 1460 1457 1456 1457 1463 1471 1480 1490 1491 1491 1491 1491 1493 1495 1498 1501 1504 1506 1507 1508 1512 1515 1516 1518 1520 1521 1523 1525 1526 1527 1528 1529 1530 1532 1531 1531 1531 1532 1532 1532 1532 1532 1533
1473 1470 1467 1465 1464 1464 1462 1459 1456 1456 1461 1466 1472 1484 1493 1491 1489 1489 1490 1493 1495 1498 1501 1504 1505 1505 1509 1513 1515 1517 1519 1521 1521 1522 1523 1525 1525 1526 1527 1528 1529 1528 1529 1529 1529 1529 1529 1529 1530
1470 1470 1468 1466 1465 1465 1463 1461 1459 1458 1461 1464 1469 1478 1484 1485 1485 1485 1487 1490 1491 1494 1497 1500 1501 1502 1504 1508 1510 1514 1516 1518 1519 1520 1521 1522 1523 1523 1524 1524 1525 1525 1526 1526 1526 1526 1526 1526 1527
1473 1469 1466 1464 1463 1463 1461 1460 1460 1458 1460 1462 1467 1472 1478 1480 1481 1481 1483 1485 1487 1489 1492 1494 1496 1498 1500 1503 1506 1508 1511 1514 1515 1517 1518 1519 1520 1520 1521 1521 1521 1521 1522 1522 1522 1522 1521 1521 1521
1472 1471 1469 1465 1461 1458 1458 1459 1456 1455 1455 1458 1464 1468 1471 1475 1476 1477 1478 1481 1483 1485 1488 1490 1492 1495 1497 1500 1503 1506 1508 1510 1512 1514 1515 1516 1517 1517 1518 1518 1518 1518 1518 1517 1517 1517 1517 1516 1516
1470 1471 1472 1459 1452 1451 1458 1465 1453 1451 1451 1454 1459 1463 1466 1470 1473 1474 1476 1477 1479 1481 1483 1486 1490 1492 1495 1498 1500 1504 1506 1508 1509 1511 1512 1513 1514 1514 1515 1515 1515 1515 1514 1514 1514 1513 1513 1512 1511
1469 1472 1465 1452 1442 1444 1452 1459 1451 1450 1452 1455 1457 1459 1462 1466 1469 1472 1472 1474 1475 1477 1479 1483 1488 1490 1493 1496 1498 1501 1503 1505 1507 1509 1510 1510 1511 1512 1512 1512 1513 1512 1512 1512 1511 1511 1509 1508 1507
1467 1458 1454 1449 1440 1447 1455 1455 1450 1450 1453 1455 1456 1457 1459 1463 1466 1470 1472 1474 1473 1475 1476 1479 1485 1489 1491 1494 1497 1500 1502 1503 1505 1507 1508 1508 1509 1510 1509 1509 1509 1509 1508 1508 1508 1507 1506 1505 1504
1462 1460 1457 1449 1443 1452 1458 1457 1453 1450 1453 1455 1456 1457 1459 1462 1466 1467 1470 1471 1471 1472 1470 1475 1481 1487 1491 1493 1495 1498 1500 1501 1503 1505 1505 1506 1506 1507 1506 1506 1505 1505 1504 1504 1504 1503 1502 1501 1500
1464 1465 1461 1453 1448 1452 1458 1458 1452 1451 1452 1455 1458 1460 1461 1462 1467 1468 1468 1464 1469 1471 1466 1469 1477 1485 1491 1493 1495 1496 1498 1500 1501 1502 1502 1503 1503 1503 1503 1503 1502 1501 1501 1500 1500 1499 1498 1496 1497
1468 1468 1467 1466 1459 1456 1459 1460 1453 1449 1451 1457 1464 1467 1470 1471 1471 1472 1471 1468 1470 1471 1468 1474 1477 1485 1490 1493 1495 1496 1497 1498 1499 1499 1499 1499 1500 1500 1500 1499 1498 1498 1497 1496 1496 1496 1494 1493 1492
1474 1466 1466 1466 1469 1468 1460 1471 1455 1449 1455 1462 1468 1472 1476 1477 1480 1478 1477 1476 1478 1476 1478 1481 1485 1487 1489 1491 1493 1494 1495 1496 1497 1497 1497 1496 1496 1496 1496 1496 1495 1494 1494 1493 1492 1493 1491 1490 1488
1469 1463 1464 1465 1467 1469 1463 1468 1461 1451 1462 1469 1474 1477 1480 1481 1483 1482 1481 1482 1483 1483 1483 1483 1485 1487 1488 1489 1491 1491 1493 1493 1493 1493 1494 1494 1493 1493 1493 1493 1492 1491 1491 1490 1489 1488 1487 1486 1484
1463 1463 1462 1461 1469 1489 1488 1491 1473 1459 1464 1471 1476 1479 1481 1483 1484 1485 1486 1486 1485 1485 1484 1484 1485 1486 1486 1486 1487 1488 1489 1489 1489 1489 1490 1491 1491 1491 1490 1489 1488 1488 1487 1486 1486 1484 1483 1482 1480
1466 1474 1483 1485 1495 1499 1492 1494 1480 1468 1467 1472 1479 1482 1483 1484 1486 1487 1488 1488 1487 1486 1485 1485 1484 1484 1483 1482 1483 1483 1484 1484 1484 1485 1486 1486 1487 1488 1488 1486 1485 1484 1484 1483 1482 1481 1479 1478 1476
1469 1472 1487 1493 1486 1477 1479 1480 1482 1476 1478 1481 1483 1485 1485 1486 1487 1487 1488 1488 1487 1486 1485 1484 1483 1482 1482 1481 1481 1481 1480 1480 1480 1480 1481 1481 1482 1482 1482 1481 1480 1480 1479 1479 1478 1476 1475 1474 1472
1470 1470 1465 1472 1470 1472 1466 1478 1484 1482 1485 1486 1487 1488 1489 1489 1489 1488 1488 1487 1487 1486 1484 1483 1482 1481 1480 1479 1479 1478 1477 1476 1476 1475 1476 1476 1476 1476 1476 1476 1475 1475 1474 1474 1473 1472 1471 1470 1468
1462 1464 1470 1479 1489 1490 1473 1481 1490 1488 1490 1489 1491 1492 1493 1492 1491 1490 1489 1487 1486 1485 1483 1481 1480 1478 1477 1476 1475 1475 1473 1472 1471 1471 1470 1469 1469 1469 1469 1469 1469 1469 1469 1469 1468 1467 1466 1465 1463
1467 1467 1469 1474 1480 1492 1494 1496 1487 1493 1493 1493 1493 1495 1495 1495 1493 1492 1489 1487 1485 1483 1482 1480 1478 1476 1475 1473 1471 1470 1468 1467 1466 1465 1464 1464 1463 1463 1463 1462 1462 1462 1463 1463 1463 1462 1461 1460 1458
1466 1467 1471 1485 1487 1482 1487 1501 1490 1492 1493 1495 1496 1496 1496 1495 1494 1491 1489 1486 1483 1481 1479 1477 1475 1473 1471 1469 1468 1466 1464 1462 1460 1459 1458 1457 1456 1456 1456 1455 1455 1455 1456 1456 1456 1456 1456 1455 1454